This is the latest recevied weather packets stored in our database for station/object EA1FBN. If no packets are shown the sender has not sent any weather packets the latest 10 day(s).
| Time | Temp. | Humidity | Pressure | Rain* | Wind** | Luminosity | Snow |
|---|---|---|---|---|---|---|---|
| 1778098803 | 11.67° C | 60% | 1013.3 hPa | 0 mm | - | - | - |
| 1778098503 | 12.22° C | 59% | 1013.4 hPa | 0 mm | - | - | - |
| 1778098203 | 12.22° C | 59% | 1013.4 hPa | 0 mm | - | - | - |
| 1778097903 | 12.22° C | 58% | 1013.3 hPa | 0 mm | - | - | - |
| 1778097604 | 12.78° C | 56% | 1013.2 hPa | 0 mm | - | - | - |
| 1778097303 | 12.78° C | 54% | 1013.2 hPa | 0 mm | - | - | - |
| 1778097003 | 13.33° C | 52% | 1013.2 hPa | 0 mm | - | - | - |
| 1778096703 | 13.33° C | 51% | 1013.2 hPa | 0 mm | - | - | - |
| 1778096403 | 13.33° C | 51% | 1013.2 hPa | 0 mm | - | - | - |
| 1778096104 | 13.33° C | 52% | 1013.1 hPa | 0 mm | - | - | - |
| 1778095803 | 13.89° C | 51% | 1013.1 hPa | 0 mm | - | - | - |
| 1778095503 | 13.89° C | 51% | 1013 hPa | 0 mm | - | - | - |
| 1778095204 | 14.44° C | 49% | 1013 hPa | 0 mm | - | - | - |
| 1778094904 | 14.44° C | 48% | 1013 hPa | 0 mm | - | - | - |
| 1778094604 | 15° C | 49% | 1013 hPa | 0 mm | - | - | - |
| 1778094304 | 15.56° C | 46% | 1013 hPa | 0 mm | - | - | - |
| 1778094004 | 15.56° C | 45% | 1012.9 hPa | 0 mm | - | - | - |
| 1778093704 | 15.56° C | 43% | 1012.9 hPa | 0 mm | - | - | - |
| 1778093404 | 16.11° C | 45% | 1012.9 hPa | 0 mm | - | - | - |
| 1778093104 | 16.11° C | 42% | 1012.8 hPa | 0 mm | - | - | - |
| 1778092804 | 16.11° C | 43% | 1012.8 hPa | 0 mm | - | - | - |
| 1778092504 | 16.11° C | 44% | 1012.8 hPa | 0 mm | - | - | - |
| 1778092204 | 16.11° C | 42% | 1012.8 hPa | 0 mm | - | - | - |
| 1778091904 | 16.67° C | 40% | 1012.9 hPa | 0 mm | - | - | - |
| 1778091604 | 17.22° C | 38% | 1012.8 hPa | 0 mm | - | - | - |
* Rain latest hour (hover to see other rain measurements)
** Current wind speed in m/s (hover to see current wind gust speed)